EW5383 Weather Reports


Display with metric or nautical units.
time (UTC)temp
F
wind
direction
speed
MPH
gust
MPH
rain 1hr
in
rain 24hr
in
rain mn
in
humidity
%
barometer
mb
20260503210043 78 101 0.0 4.0 0.00 0.20 0.00 63 1015.0
20260503204540 79 155 0.0 3.0 0.00 0.39 0.00 63 1015.1
20260503203044 78 70 0.0 2.0 0.00 0.39 0.00 63 1015.4
20260503201531 78 112 0.0 3.0 0.00 0.39 0.00 63 1015.5
20260503200034 77 111 1.0 3.0 0.00 0.39 0.00 63 1015.7
20260503194523 77 144 0.0 4.0 0.00 0.39 0.00 63 1015.8
20260503193023 77 89 0.0 3.0 0.00 0.39 0.00 62 1015.9
20260503191518 76 121 0.0 2.0 0.00 0.39 0.00 61 1016.3
20260503190014 75 65 0.0 3.0 0.00 0.39 0.00 59 1016.5
20260503184505 75 70 0.0 3.0 0.00 0.39 0.00 53 1016.8
20260503183001 74 110 0.0 3.0 0.00 0.39 0.00 44 1017.0
20260503181614 73 132 0.0 2.0 0.00 0.39 0.00 38 1017.2
20260503180111 72 85 0.0 4.0 0.00 0.39 0.00 35 1017.2
20260503174555 72 241 0.0 3.0 0.00 0.39 0.00 30 1017.4
20260503173055 71 81 0.0 3.0 0.00 0.39 0.00 29 1017.6
20260503171539 72 191 1.0 3.0 0.00 0.39 0.00 32 1017.5
20260503150109 68 66 0.0 3.0 0.00 0.39 0.00 1 1017.9
20260503081503 0 0.0 0.0 0.00 0.39 0.00 1014.2
20260503080106 0 0.0 0.0 0.00 0.39 0.00 1013.7
20260503071546 0 0.0 0.0 0.00 0.39 0.00 1013.6
20260503054518 0 0.0 0.0 0.00 0.39 0.00 1014.0
20260503053017 0 0.0 0.0 0.00 0.39 0.00 1014.1
20260503051521 0 0.0 0.0 0.00 0.39 0.00 1014.0
20260503050005 0 0.0 0.0 0.00 0.39 0.00 1014.2
20260503044611 0 0.0 0.0 0.00 0.39 0.00 1014.4
20260503043059 0 0.0 0.0 0.00 0.39 0.00 1014.3
20260503041552 0 0.0 0.0 0.00 0.39 0.00 1014.3
20260503040052 0 0.0 0.0 0.00 0.39 0.00 1014.2
20260503034543 0 0.0 0.0 0.00 0.39 0.39 1013.9
20260503033040 0 0.0 0.0 0.00 0.39 0.39 1013.5
20260503031535 0 0.0 0.0 0.00 0.39 0.39 1013.4
20260503030048 0 0.0 0.0 0.00 0.39 0.39 1012.8
20260503024531 0 0.0 0.0 0.00 0.39 0.39 1012.9
20260503023020 0 0.0 0.0 0.00 0.39 0.39 1013.3
20260503021516 0 0.0 0.0 0.00 0.39 0.39 1013.0
20260503020012 0 0.0 0.0 0.00 0.39 0.39 1013.3
20260503014508 71 46 0.0 0.0 0.00 0.39 0.39 1 1013.2
20260503013003 70 51 0.0 0.0 0.00 0.39 0.39 1 1013.1
20260503011603 70 51 0.0 0.0 0.00 0.39 0.39 1 1012.1
20260503010106 70 219 0.0 0.0 0.00 0.39 0.39 1 1011.7
20260503004550 70 219 0.0 0.0 0.01 0.39 0.39 1 1012.0
20260503003056 70 219 0.0 0.0 0.01 0.39 0.39 1 1012.0
20260503001541 70 219 0.0 0.0 0.01 0.39 0.39 1 1011.2
20260503000036 71 226 0.0 0.0 0.01 0.38 0.38 1 1011.9
20260502234532 71 234 0.0 0.0 0.02 0.38 0.38 1 1010.6
20260502233028 72 148 0.0 0.0 0.02 0.38 0.38 1 1011.0
20260502231523 72 148 0.0 0.0 0.04 0.38 0.38 1 1011.4
20260502230019 72 148 0.0 0.0 0.04 0.36 0.36 1 1011.3
20260502224515 72 148 0.0 0.0 0.06 0.36 0.36 1 1011.5
20260502223013 72 148 0.0 0.0 0.07 0.36 0.36 1 1011.3
20260502221506 72 148 0.0 0.0 0.06 0.34 0.34 1 1011.2
20260502220002 72 148 0.0 0.0 0.11 0.32 0.32 1 1011.3
20260502214602 72 148 0.0 0.0 0.13 0.30 0.30 1 1011.5
20260502213053 72 152 0.0 0.0 0.12 0.28 0.28 1 1010.9
20260502211551 72 18 0.0 0.0 0.28 0.28 0.28 1 1010.8